Powrót do katalogu

COSMOS 2251 DEB

AktywnyLEO
NORAD 34816·DEBRIS·🇷🇺 Russia

Wystrzelony Jun 16, 1993 z Plesetsk Cosmodrome

Loading…

Następne Przeloty (najbliższe 24 godziny)

TLE

ŚwieżeSource: Space-Track

Epoka: Sep 14, 2026, 09:45 UTC

1 34816U 93036ABF 26257.40649937  .00000391  00000-0  35530-3 0  9999
2 34816  73.8858  53.1200 0373407  67.8974 324.2965 13.58798873865277

Śledź COSMOS 2251 DEB w czasie rzeczywistym z AllMySat

Download on the App Store